Time,TemperatureF,DewpointF,PressureIn,WindDirection,WindDirectionDegrees,WindSpeedMPH,WindSpeedGustMPH,Humidity,HourlyPrecipIn,Conditions,Clouds,dailyrainin,SoftwareType,DateUTC
2013-09-03 00:00:00,73.3,73.0,29.78,WSW,249,0.0,0.0,99,0.00,,,0.19,Wunderground v.1.15,2013-09-03 04:00:00,
2013-09-03 00:05:00,73.3,73.0,29.78,WSW,249,0.0,0.0,99,0.00,,,0.00,Wunderground v.1.15,2013-09-03 04:05:00,
2013-09-03 00:10:00,73.4,73.1,29.78,WSW,249,0.0,0.0,99,0.00,,,0.00,Wunderground v.1.15,2013-09-03 04:10:00,
2013-09-03 00:15:00,73.4,73.1,29.78,WSW,249,0.0,0.0,99,0.00,,,0.00,Wunderground v.1.15,2013-09-03 04:15:00,
2013-09-03 00:20:00,73.4,73.1,29.78,WSW,249,0.0,0.0,99,0.00,,,0.00,Wunderground v.1.15,2013-09-03 04:20:00,
2013-09-03 00:25:00,73.3,73.0,29.78,WSW,249,0.0,0.0,99,0.00,,,0.00,Wunderground v.1.15,2013-09-03 04:25:00,
2013-09-03 00:30:00,73.4,73.1,29.78,WSW,249,0.0,0.0,99,0.00,,,0.00,Wunderground v.1.15,2013-09-03 04:30:00,
2013-09-03 00:35:00,73.4,73.1,29.79,WSW,249,0.0,0.0,99,0.00,,,0.00,Wunderground v.1.15,2013-09-03 04:35:00,
2013-09-03 00:40:00,73.5,73.2,29.78,WSW,249,0.0,0.0,99,0.00,,,0.00,Wunderground v.1.15,2013-09-03 04:40:00,
2013-09-03 00:45:00,73.5,73.2,29.78,WSW,249,0.0,0.0,99,0.00,,,0.00,Wunderground v.1.15,2013-09-03 04:45:00,
2013-09-03 00:50:00,73.4,73.1,29.79,WSW,249,0.0,0.0,99,0.00,,,0.00,Wunderground v.1.15,2013-09-03 04:50:00,
2013-09-03 00:55:00,73.5,73.2,29.79,WSW,249,0.0,0.0,99,0.00,,,0.00,Wunderground v.1.15,2013-09-03 04:55:00,
2013-09-03 01:05:00,73.5,73.2,29.79,WSW,249,0.0,0.0,99,0.00,,,0.00,Wunderground v.1.15,2013-09-03 05:05:00,
2013-09-03 01:10:00,73.4,73.1,29.79,WSW,249,0.0,0.0,99,0.00,,,0.00,Wunderground v.1.15,2013-09-03 05:10:00,
2013-09-03 01:15:00,73.3,73.0,29.78,WSW,249,0.0,0.0,99,0.00,,,0.00,Wunderground v.1.15,2013-09-03 05:15:00,
2013-09-03 01:20:00,73.2,72.9,29.79,WSW,249,0.0,0.0,99,0.00,,,0.00,Wunderground v.1.15,2013-09-03 05:20:00,
2013-09-03 01:30:00,73.0,72.7,29.79,WSW,249,0.0,0.0,99,0.00,,,0.00,Wunderground v.1.15,2013-09-03 05:30:00,
2013-09-03 01:35:00,72.8,72.5,29.79,WSW,249,0.0,0.0,99,0.00,,,0.00,Wunderground v.1.15,2013-09-03 05:35:00,
2013-09-03 01:40:00,72.7,72.4,29.78,WSW,249,0.0,0.0,99,0.00,,,0.00,Wunderground v.1.15,2013-09-03 05:40:00,
2013-09-03 01:45:00,72.6,72.3,29.78,WSW,249,0.0,0.0,99,0.00,,,0.00,Wunderground v.1.15,2013-09-03 05:45:00,
2013-09-03 01:55:00,72.5,72.2,29.78,WSW,249,0.0,0.0,99,0.00,,,0.00,Wunderground v.1.15,2013-09-03 05:55:00,
2013-09-03 02:00:00,72.4,72.1,29.78,WSW,249,0.0,0.0,99,0.00,,,0.00,Wunderground v.1.15,2013-09-03 06:00:00,
2013-09-03 02:10:00,72.4,72.1,29.78,WSW,249,0.0,0.0,99,0.00,,,0.00,Wunderground v.1.15,2013-09-03 06:10:00,
2013-09-03 02:15:00,72.3,72.0,29.78,WSW,249,0.0,0.0,99,0.00,,,0.00,Wunderground v.1.15,2013-09-03 06:15:00,
2013-09-03 02:20:00,72.2,71.9,29.78,WSW,249,0.0,0.0,99,0.00,,,0.00,Wunderground v.1.15,2013-09-03 06:20:00,
2013-09-03 02:30:00,72.1,71.8,29.77,WSW,249,0.0,0.0,99,0.00,,,0.00,Wunderground v.1.15,2013-09-03 06:30:00,
2013-09-03 02:35:00,71.9,71.6,29.77,WSW,249,0.0,0.0,99,0.00,,,0.00,Wunderground v.1.15,2013-09-03 06:35:00,
2013-09-03 02:40:00,71.9,71.6,29.77,WSW,249,0.0,0.0,99,0.00,,,0.00,Wunderground v.1.15,2013-09-03 06:40:00,
2013-09-03 02:50:00,71.8,71.5,29.77,WSW,249,0.0,0.0,99,0.00,,,0.00,Wunderground v.1.15,2013-09-03 06:50:00,
2013-09-03 02:55:00,71.7,71.4,29.77,WSW,249,0.0,0.0,99,0.00,,,0.00,Wunderground v.1.15,2013-09-03 06:55:00,
2013-09-03 03:00:00,71.5,71.2,29.77,WSW,249,0.0,0.0,99,0.00,,,0.00,Wunderground v.1.15,2013-09-03 07:00:00,
2013-09-03 03:10:00,71.3,71.0,29.76,WSW,249,0.0,0.0,99,0.00,,,0.00,Wunderground v.1.15,2013-09-03 07:10:00,
2013-09-03 03:15:00,71.2,70.9,29.76,WSW,249,0.0,0.0,99,0.00,,,0.00,Wunderground v.1.15,2013-09-03 07:15:00,
2013-09-03 03:20:00,71.2,70.9,29.76,WSW,249,0.0,0.0,99,0.00,,,0.00,Wunderground v.1.15,2013-09-03 07:20:00,
2013-09-03 03:30:00,71.1,70.8,29.76,WSW,249,0.0,0.0,99,0.00,,,0.00,Wunderground v.1.15,2013-09-03 07:30:00,
2013-09-03 03:35:00,71.1,70.8,29.76,WSW,249,0.0,0.0,99,0.00,,,0.00,Wunderground v.1.15,2013-09-03 07:35:00,
2013-09-03 03:45:00,70.9,70.6,29.76,WSW,249,0.0,0.0,99,0.00,,,0.00,Wunderground v.1.15,2013-09-03 07:45:00,
2013-09-03 03:50:00,70.9,70.6,29.76,WSW,249,0.0,0.0,99,0.00,,,0.00,Wunderground v.1.15,2013-09-03 07:50:00,
2013-09-03 03:55:00,70.8,70.8,29.76,WSW,249,0.0,0.0,100,0.00,,,0.00,Wunderground v.1.15,2013-09-03 07:55:00,
2013-09-03 04:05:00,71.0,71.0,29.76,WSW,249,0.0,0.0,100,0.00,,,0.00,Wunderground v.1.15,2013-09-03 08:05:00,
2013-09-03 04:10:00,71.0,71.0,29.76,WSW,249,0.0,0.0,100,0.00,,,0.00,Wunderground v.1.15,2013-09-03 08:10:00,
2013-09-03 04:15:00,70.9,70.9,29.76,WSW,249,0.0,0.0,100,0.00,,,0.00,Wunderground v.1.15,2013-09-03 08:15:00,
2013-09-03 04:25:00,70.8,70.8,29.76,WSW,249,0.0,0.0,100,0.00,,,0.00,Wunderground v.1.15,2013-09-03 08:25:00,
2013-09-03 04:30:00,70.6,70.6,29.76,WSW,249,0.0,0.0,100,0.00,,,0.00,Wunderground v.1.15,2013-09-03 08:30:00,
2013-09-03 04:35:00,70.5,70.2,29.76,WSW,249,0.0,0.0,99,0.00,,,0.00,Wunderground v.1.15,2013-09-03 08:35:00,
2013-09-03 04:45:00,70.3,70.0,29.76,WSW,249,0.0,0.0,99,0.00,,,0.00,Wunderground v.1.15,2013-09-03 08:45:00,
2013-09-03 04:50:00,70.2,69.9,29.76,WSW,249,0.0,0.0,99,0.00,,,0.00,Wunderground v.1.15,2013-09-03 08:50:00,
2013-09-03 04:55:00,70.2,70.2,29.76,WSW,249,0.0,0.0,100,0.00,,,0.00,Wunderground v.1.15,2013-09-03 08:55:00,
2013-09-03 05:05:00,70.1,70.1,29.76,WSW,249,0.0,0.0,100,0.00,,,0.00,Wunderground v.1.15,2013-09-03 09:05:00,
2013-09-03 05:10:00,70.1,70.1,29.76,WSW,249,0.0,0.0,100,0.00,,,0.00,Wunderground v.1.15,2013-09-03 09:10:00,
2013-09-03 05:20:00,70.2,70.2,29.76,WSW,249,0.0,0.0,100,0.00,,,0.00,Wunderground v.1.15,2013-09-03 09:20:00,
2013-09-03 05:25:00,70.2,70.2,29.76,WSW,249,0.0,0.0,100,0.00,,,0.00,Wunderground v.1.15,2013-09-03 09:25:00,
2013-09-03 05:30:00,70.1,70.1,29.76,WSW,249,0.0,0.0,100,0.00,,,0.00,Wunderground v.1.15,2013-09-03 09:30:00,
2013-09-03 05:35:00,70.0,70.0,29.76,WSW,249,0.0,0.0,100,0.00,,,0.00,Wunderground v.1.15,2013-09-03 09:35:00,
2013-09-03 05:45:00,69.9,69.9,29.76,WSW,249,0.0,0.0,100,0.00,,,0.00,Wunderground v.1.15,2013-09-03 09:45:00,
2013-09-03 05:50:00,69.8,69.8,29.76,WSW,249,0.0,0.0,100,0.00,,,0.00,Wunderground v.1.15,2013-09-03 09:50:00,
2013-09-03 06:00:00,69.8,69.8,29.75,WSW,249,0.0,0.0,100,0.00,,,0.00,Wunderground v.1.15,2013-09-03 10:00:00,
2013-09-03 06:05:00,69.8,69.8,29.76,WSW,249,0.0,0.0,100,0.00,,,0.00,Wunderground v.1.15,2013-09-03 10:05:00,
2013-09-03 06:10:00,69.8,69.8,29.76,WSW,249,0.0,0.0,100,0.00,,,0.00,Wunderground v.1.15,2013-09-03 10:10:00,
2013-09-03 06:20:00,69.6,69.6,29.76,WSW,249,0.0,0.0,100,0.00,,,0.00,Wunderground v.1.15,2013-09-03 10:20:00,
2013-09-03 06:25:00,69.5,69.5,29.75,WSW,249,0.0,0.0,100,0.00,,,0.00,Wunderground v.1.15,2013-09-03 10:25:00,
2013-09-03 06:30:00,69.4,69.4,29.76,WSW,249,0.0,0.0,100,0.00,,,0.00,Wunderground v.1.15,2013-09-03 10:30:00,
2013-09-03 06:40:00,69.3,69.0,29.76,WSW,249,0.0,0.0,99,0.00,,,0.00,Wunderground v.1.15,2013-09-03 10:40:00,
2013-09-03 06:45:00,69.3,69.3,29.76,WSW,249,0.0,0.0,100,0.00,,,0.00,Wunderground v.1.15,2013-09-03 10:45:00,
2013-09-03 06:50:00,69.4,69.4,29.76,WSW,249,0.0,0.0,100,0.00,,,0.00,Wunderground v.1.15,2013-09-03 10:50:00,
2013-09-03 07:00:00,69.2,69.2,29.77,WSW,249,0.0,0.0,100,0.00,,,0.00,Wunderground v.1.15,2013-09-03 11:00:00,
2013-09-03 07:05:00,69.1,69.1,29.77,WSW,249,0.0,0.0,100,0.00,,,0.00,Wunderground v.1.15,2013-09-03 11:05:00,
2013-09-03 07:10:00,69.1,69.1,29.77,WSW,249,0.0,0.0,100,0.00,,,0.00,Wunderground v.1.15,2013-09-03 11:10:00,
2013-09-03 07:20:00,69.3,69.3,29.78,WSW,249,0.0,0.0,100,0.00,,,0.00,Wunderground v.1.15,2013-09-03 11:20:00,
2013-09-03 07:30:00,69.6,69.6,29.79,WSW,249,0.0,0.0,100,0.00,,,0.00,Wunderground v.1.15,2013-09-03 11:30:00,
2013-09-03 07:35:00,69.7,69.7,29.79,WSW,249,0.0,0.0,100,0.00,,,0.00,Wunderground v.1.15,2013-09-03 11:35:00,
2013-09-03 07:40:00,69.8,69.8,29.79,WSW,249,0.0,0.0,100,0.00,,,0.00,Wunderground v.1.15,2013-09-03 11:40:00,
2013-09-03 07:50:00,70.3,70.3,29.80,WSW,249,0.0,0.0,100,0.00,,,0.00,Wunderground v.1.15,2013-09-03 11:50:00,
2013-09-03 07:55:00,70.4,70.4,29.80,WSW,249,0.0,0.0,100,0.00,,,0.00,Wunderground v.1.15,2013-09-03 11:55:00,
2013-09-03 08:00:00,71.1,71.1,29.81,WSW,249,0.0,0.0,100,0.00,,,0.00,Wunderground v.1.15,2013-09-03 12:00:00,
2013-09-03 08:10:00,71.5,71.5,29.81,WSW,249,0.0,0.0,100,0.00,,,0.00,Wunderground v.1.15,2013-09-03 12:10:00,
2013-09-03 08:15:00,71.6,71.6,29.81,WSW,249,0.0,0.0,100,0.00,,,0.00,Wunderground v.1.15,2013-09-03 12:15:00,
2013-09-03 08:20:00,71.8,71.8,29.81,WSW,249,0.0,0.0,100,0.00,,,0.00,Wunderground v.1.15,2013-09-03 12:20:00,
2013-09-03 08:30:00,72.3,72.3,29.82,WSW,249,0.0,0.0,100,0.00,,,0.00,Wunderground v.1.15,2013-09-03 12:30:00,
2013-09-03 08:35:00,72.5,72.5,29.82,WSW,249,0.0,0.0,100,0.00,,,0.00,Wunderground v.1.15,2013-09-03 12:35:00,
2013-09-03 08:40:00,72.5,72.5,29.82,WSW,249,0.0,0.0,100,0.00,,,0.00,Wunderground v.1.15,2013-09-03 12:40:00,
2013-09-03 08:50:00,73.3,73.3,29.82,WSW,249,0.0,0.0,100,0.00,,,0.00,Wunderground v.1.15,2013-09-03 12:50:00,
2013-09-03 08:55:00,73.6,73.6,29.82,WSW,249,0.0,0.0,100,0.00,,,0.00,Wunderground v.1.15,2013-09-03 12:55:00,
2013-09-03 09:00:00,73.8,73.8,29.82,WSW,249,0.0,0.0,100,0.00,,,0.00,Wunderground v.1.15,2013-09-03 13:00:00,
2013-09-03 09:10:00,73.7,73.7,29.82,WSW,249,0.0,0.0,100,0.00,,,0.00,Wunderground v.1.15,2013-09-03 13:10:00,
2013-09-03 09:15:00,73.9,73.9,29.81,WSW,249,0.0,0.0,100,0.00,,,0.00,Wunderground v.1.15,2013-09-03 13:15:00,
2013-09-03 09:20:00,73.9,73.9,29.81,WSW,249,0.0,0.0,100,0.00,,,0.00,Wunderground v.1.15,2013-09-03 13:20:00,
2013-09-03 09:30:00,74.7,74.7,29.81,NW,310,0.0,0.0,100,0.00,,,0.00,Wunderground v.1.15,2013-09-03 13:30:00,
2013-09-03 09:35:00,74.9,74.9,29.81,NW,310,0.0,1.0,100,0.00,,,0.00,Wunderground v.1.15,2013-09-03 13:35:00,
2013-09-03 09:45:00,75.5,75.5,29.81,NW,310,0.0,0.0,100,0.00,,,0.00,Wunderground v.1.15,2013-09-03 13:45:00,
2013-09-03 09:50:00,75.6,75.6,29.82,NW,310,0.0,0.0,100,0.00,,,0.00,Wunderground v.1.15,2013-09-03 13:50:00,
2013-09-03 09:55:00,75.8,75.8,29.82,NW,310,0.0,0.0,100,0.00,,,0.00,Wunderground v.1.15,2013-09-03 13:55:00,
2013-09-03 10:00:00,76.1,76.1,29.82,NW,310,0.0,0.0,100,0.00,,,0.00,Wunderground v.1.15,2013-09-03 14:00:00,
2013-09-03 10:10:00,76.4,76.1,29.82,NW,310,0.0,0.0,99,0.00,,,0.00,Wunderground v.1.15,2013-09-03 14:10:00,
2013-09-03 10:15:00,76.6,76.3,29.82,NW,310,0.0,0.0,99,0.00,,,0.00,Wunderground v.1.15,2013-09-03 14:15:00,
2013-09-03 10:25:00,77.0,75.8,29.83,NW,310,0.0,1.0,96,0.00,,,0.00,Wunderground v.1.15,2013-09-03 14:25:00,
2013-09-03 10:30:00,77.3,75.8,29.83,NW,310,0.0,0.0,95,0.00,,,0.00,Wunderground v.1.15,2013-09-03 14:30:00,
2013-09-03 10:35:00,77.6,75.4,29.83,NW,310,0.0,0.0,93,0.00,,,0.00,Wunderground v.1.15,2013-09-03 14:35:00,
2013-09-03 10:40:00,77.9,76.0,29.83,SE,146,0.0,3.0,94,0.00,,,0.00,Wunderground v.1.15,2013-09-03 14:40:00,
2013-09-03 10:50:00,78.7,75.8,29.83,NE,34,0.0,0.0,91,0.00,,,0.00,Wunderground v.1.15,2013-09-03 14:50:00,
2013-09-03 10:55:00,79.0,75.5,29.83,NE,37,1.0,1.0,89,0.00,,,0.00,Wunderground v.1.15,2013-09-03 14:55:00,
2013-09-03 11:05:00,79.1,76.6,29.83,NE,37,0.0,0.0,92,0.00,,,0.00,Wunderground v.1.15,2013-09-03 15:05:00,
2013-09-03 11:10:00,78.9,76.4,29.83,NE,37,0.0,0.0,92,0.00,,,0.00,Wunderground v.1.15,2013-09-03 15:10:00,
2013-09-03 11:15:00,78.9,76.0,29.83,NE,37,0.0,0.0,91,0.00,,,0.00,Wunderground v.1.15,2013-09-03 15:15:00,
2013-09-03 11:25:00,78.9,76.0,29.83,NE,37,0.0,0.0,91,0.00,,,0.00,Wunderground v.1.15,2013-09-03 15:25:00,
2013-09-03 11:30:00,78.9,76.0,29.84,NE,37,0.0,0.0,91,0.00,,,0.00,Wunderground v.1.15,2013-09-03 15:30:00,
2013-09-03 11:35:00,78.4,75.6,29.84,NE,50,0.0,0.0,91,0.00,,,0.00,Wunderground v.1.15,2013-09-03 15:35:00,
2013-09-03 11:45:00,76.9,74.7,29.84,ENE,70,0.0,1.0,93,0.00,,,0.01,Wunderground v.1.15,2013-09-03 15:45:00,
2013-09-03 11:50:00,75.9,74.4,29.83,ENE,70,0.0,0.0,95,0.07,,,0.02,Wunderground v.1.15,2013-09-03 15:50:00,
2013-09-03 11:55:00,75.3,74.1,29.84,ENE,70,0.0,0.0,96,0.07,,,0.02,Wunderground v.1.15,2013-09-03 15:55:00,
2013-09-03 12:05:00,74.4,73.2,29.84,ENE,70,0.0,0.0,96,0.07,,,0.04,Wunderground v.1.15,2013-09-03 16:05:00,
2013-09-03 12:10:00,74.1,72.9,29.83,ENE,70,0.0,0.0,96,0.07,,,0.04,Wunderground v.1.15,2013-09-03 16:10:00,
2013-09-03 12:15:00,73.9,73.0,29.82,ENE,70,0.0,0.0,97,0.07,,,0.05,Wunderground v.1.15,2013-09-03 16:15:00,
2013-09-03 12:20:00,73.9,73.3,29.82,ENE,70,0.0,0.0,98,0.07,,,0.05,Wunderground v.1.15,2013-09-03 16:20:00,
2013-09-03 12:30:00,74.0,73.4,29.82,ENE,70,0.0,0.0,98,0.07,,,0.06,Wunderground v.1.15,2013-09-03 16:30:00,
2013-09-03 12:35:00,74.3,73.7,29.83,ENE,70,0.0,0.0,98,0.06,,,0.07,Wunderground v.1.15,2013-09-03 16:35:00,
2013-09-03 12:45:00,75.4,75.4,29.83,ENE,70,0.0,0.0,100,0.05,,,0.08,Wunderground v.1.15,2013-09-03 16:45:00,
2013-09-03 12:50:00,75.8,75.8,29.82,ENE,70,0.0,0.0,100,0.05,,,0.08,Wunderground v.1.15,2013-09-03 16:50:00,
2013-09-03 12:55:00,76.1,75.8,29.81,ENE,70,0.0,0.0,99,0.06,,,0.09,Wunderground v.1.15,2013-09-03 16:55:00,
2013-09-03 13:05:00,76.8,74.0,29.81,ENE,70,0.0,0.0,91,0.07,,,0.10,Wunderground v.1.15,2013-09-03 17:05:00,
2013-09-03 13:10:00,77.6,74.4,29.80,ENE,70,0.0,0.0,90,0.07,,,0.10,Wunderground v.1.15,2013-09-03 17:10:00,
2013-09-03 13:15:00,78.3,76.7,29.80,ENE,70,0.0,0.0,95,0.08,,,0.11,Wunderground v.1.15,2013-09-03 17:15:00,
2013-09-03 13:25:00,79.3,76.8,29.80,ENE,70,0.0,1.0,92,0.08,,,0.12,Wunderground v.1.15,2013-09-03 17:25:00,
2013-09-03 13:30:00,80.1,77.9,29.80,ENE,70,0.0,0.0,93,0.07,,,0.13,Wunderground v.1.15,2013-09-03 17:30:00,
2013-09-03 13:35:00,80.4,75.8,29.80,East,90,1.0,1.0,86,0.10,,,0.14,Wunderground v.1.15,2013-09-03 17:35:00,
2013-09-03 13:45:00,81.3,78.4,29.79,SSE,148,0.0,2.0,91,0.05,,,0.14,Wunderground v.1.15,2013-09-03 17:45:00,
2013-09-03 13:50:00,81.7,78.5,29.79,East,94,1.0,1.0,90,0.00,,,0.14,Wunderground v.1.15,2013-09-03 17:50:00,
2013-09-03 13:55:00,81.8,76.8,29.79,SE,140,1.0,1.0,85,0.00,,,0.14,Wunderground v.1.15,2013-09-03 17:55:00,
2013-09-03 14:05:00,82.3,78.4,29.79,ESE,117,0.0,0.0,88,0.00,,,0.14,Wunderground v.1.15,2013-09-03 18:05:00,
2013-09-03 14:10:00,82.5,79.6,29.79,East,85,0.0,2.0,91,0.00,,,0.14,Wunderground v.1.15,2013-09-03 18:10:00,
2013-09-03 14:15:00,82.8,79.9,29.78,East,85,0.0,2.0,91,0.00,,,0.14,Wunderground v.1.15,2013-09-03 18:15:00,
2013-09-03 14:25:00,83.8,78.4,29.77,NE,42,0.0,0.0,84,0.00,,,0.14,Wunderground v.1.15,2013-09-03 18:25:00,
2013-09-03 14:30:00,83.7,78.7,29.77,NE,42,0.0,0.0,85,0.00,,,0.14,Wunderground v.1.15,2013-09-03 18:30:00,
2013-09-03 14:35:00,83.0,79.4,29.76,NE,42,0.0,0.0,89,0.00,,,0.14,Wunderground v.1.15,2013-09-03 18:35:00,
2013-09-03 14:45:00,84.0,78.3,29.76,NNE,22,0.0,1.0,83,0.00,,,0.14,Wunderground v.1.15,2013-09-03 18:45:00,
2013-09-03 14:50:00,84.0,79.0,29.77,NE,43,0.0,0.0,85,0.00,,,0.14,Wunderground v.1.15,2013-09-03 18:50:00,
2013-09-03 14:55:00,83.2,78.9,29.77,NE,43,0.0,1.0,87,0.00,,,0.14,Wunderground v.1.15,2013-09-03 18:55:00,
2013-09-03 15:05:00,82.4,79.2,29.76,NE,44,0.0,0.0,90,0.00,,,0.14,Wunderground v.1.15,2013-09-03 19:05:00,
2013-09-03 15:10:00,82.7,79.5,29.76,ENE,68,0.0,1.0,90,0.00,,,0.14,Wunderground v.1.15,2013-09-03 19:10:00,
2013-09-03 15:20:00,84.1,79.5,29.76,East,101,0.0,0.0,86,0.00,,,0.14,Wunderground v.1.15,2013-09-03 19:20:00,
2013-09-03 15:25:00,84.2,77.4,29.76,SE,142,1.0,1.0,80,0.00,,,0.14,Wunderground v.1.15,2013-09-03 19:25:00,
2013-09-03 15:30:00,84.9,78.8,29.76,East,93,1.0,3.0,82,0.00,,,0.14,Wunderground v.1.15,2013-09-03 19:30:00,
2013-09-03 15:35:00,85.6,77.9,29.76,ENE,66,1.0,3.0,78,0.00,,,0.14,Wunderground v.1.15,2013-09-03 19:35:00,
2013-09-03 15:45:00,85.5,80.5,29.76,ENE,66,0.0,1.0,85,0.00,,,0.14,Wunderground v.1.15,2013-09-03 19:45:00,
2013-09-03 15:50:00,85.8,79.7,29.75,East,80,0.0,0.0,82,0.00,,,0.14,Wunderground v.1.15,2013-09-03 19:50:00,
2013-09-03 16:00:00,85.8,78.5,29.75,ENE,71,1.0,1.0,79,0.00,,,0.14,Wunderground v.1.15,2013-09-03 20:00:00,
2013-09-03 16:05:00,86.0,77.9,29.75,NE,49,1.0,1.0,77,0.00,,,0.14,Wunderground v.1.15,2013-09-03 20:05:00,
2013-09-03 16:10:00,86.6,78.9,29.75,NE,46,1.0,1.0,78,0.00,,,0.14,Wunderground v.1.15,2013-09-03 20:10:00,
2013-09-03 16:20:00,87.0,75.6,29.75,ENE,59,1.0,1.0,69,0.00,,,0.14,Wunderground v.1.15,2013-09-03 20:20:00,
2013-09-03 16:25:00,87.2,74.0,29.75,NNE,24,2.0,2.0,65,0.00,,,0.14,Wunderground v.1.15,2013-09-03 20:25:00,
2013-09-03 16:30:00,87.4,75.5,29.76,NNE,22,2.0,2.0,68,0.00,,,0.14,Wunderground v.1.15,2013-09-03 20:30:00,
2013-09-03 16:40:00,86.9,75.9,29.76,NNW,337,1.0,1.0,70,0.00,,,0.14,Wunderground v.1.15,2013-09-03 20:40:00,
2013-09-03 16:45:00,86.5,75.5,29.76,NNW,327,1.0,1.0,70,0.00,,,0.14,Wunderground v.1.15,2013-09-03 20:45:00,
2013-09-03 16:50:00,86.3,78.2,29.76,NNW,338,1.0,1.0,77,0.00,,,0.14,Wunderground v.1.15,2013-09-03 20:50:00,
2013-09-03 17:00:00,85.7,77.7,29.77,NNW,338,0.0,0.0,77,0.00,,,0.14,Wunderground v.1.15,2013-09-03 21:00:00,
2013-09-03 17:05:00,84.9,76.1,29.76,WNW,300,0.0,0.0,75,0.00,,,0.14,Wunderground v.1.15,2013-09-03 21:05:00,
2013-09-03 17:10:00,84.3,77.1,29.76,WNW,300,0.0,0.0,79,0.00,,,0.14,Wunderground v.1.15,2013-09-03 21:10:00,
2013-09-03 17:20:00,84.1,75.7,29.76,NW,315,0.0,1.0,76,0.00,,,0.14,Wunderground v.1.15,2013-09-03 21:20:00,
2013-09-03 17:25:00,84.3,75.5,29.76,North,355,1.0,1.0,75,0.00,,,0.14,Wunderground v.1.15,2013-09-03 21:25:00,
2013-09-03 17:30:00,84.3,77.5,29.77,North,355,0.0,0.0,80,0.00,,,0.14,Wunderground v.1.15,2013-09-03 21:30:00,
2013-09-03 17:40:00,84.2,74.6,29.77,North,350,1.0,1.0,73,0.00,,,0.14,Wunderground v.1.15,2013-09-03 21:40:00,
2013-09-03 17:45:00,84.3,76.3,29.78,North,355,1.0,1.0,77,0.00,,,0.14,Wunderground v.1.15,2013-09-03 21:45:00,
2013-09-03 17:50:00,84.2,76.2,29.78,North,355,0.0,0.0,77,0.00,,,0.14,Wunderground v.1.15,2013-09-03 21:50:00,
2013-09-03 18:00:00,83.4,76.2,29.79,West,280,1.0,1.0,79,0.00,,,0.14,Wunderground v.1.15,2013-09-03 22:00:00,
2013-09-03 18:05:00,83.0,76.6,29.79,West,280,1.0,1.0,81,0.00,,,0.14,Wunderground v.1.15,2013-09-03 22:05:00,
2013-09-03 18:10:00,82.4,76.3,29.79,West,280,0.0,2.0,82,0.00,,,0.14,Wunderground v.1.15,2013-09-03 22:10:00,
2013-09-03 18:20:00,81.3,76.4,29.80,West,280,0.0,0.0,85,0.00,,,0.14,Wunderground v.1.15,2013-09-03 22:20:00,
2013-09-03 18:25:00,80.9,76.7,29.80,West,280,0.0,0.0,87,0.00,,,0.14,Wunderground v.1.15,2013-09-03 22:25:00,
2013-09-03 18:30:00,80.6,76.0,29.79,West,280,0.0,0.0,86,0.00,,,0.14,Wunderground v.1.15,2013-09-03 22:30:00,
2013-09-03 18:40:00,79.9,75.7,29.80,West,280,0.0,0.0,87,0.00,,,0.14,Wunderground v.1.15,2013-09-03 22:40:00,
2013-09-03 18:45:00,79.4,75.2,29.80,West,280,0.0,0.0,87,0.00,,,0.14,Wunderground v.1.15,2013-09-03 22:45:00,
2013-09-03 18:50:00,78.9,74.7,29.79,West,280,0.0,0.0,87,0.00,,,0.14,Wunderground v.1.15,2013-09-03 22:50:00,
2013-09-03 19:00:00,78.2,74.7,29.80,West,280,0.0,0.0,89,0.00,,,0.14,Wunderground v.1.15,2013-09-03 23:00:00,
2013-09-03 19:05:00,77.8,74.3,29.80,West,280,0.0,0.0,89,0.00,,,0.14,Wunderground v.1.15,2013-09-03 23:05:00,
2013-09-03 19:10:00,77.5,74.0,29.81,West,280,0.0,0.0,89,0.00,,,0.14,Wunderground v.1.15,2013-09-03 23:10:00,
2013-09-03 19:20:00,77.1,73.9,29.81,West,280,0.0,0.0,90,0.00,,,0.14,Wunderground v.1.15,2013-09-03 23:20:00,
2013-09-03 19:25:00,76.9,73.7,29.81,West,280,0.0,0.0,90,0.00,,,0.14,Wunderground v.1.15,2013-09-03 23:25:00,
2013-09-03 19:35:00,76.4,73.6,29.82,West,280,0.0,0.0,91,0.00,,,0.14,Wunderground v.1.15,2013-09-03 23:35:00,
2013-09-03 19:40:00,76.2,73.7,29.82,West,280,0.0,0.0,92,0.00,,,0.14,Wunderground v.1.15,2013-09-03 23:40:00,
2013-09-03 19:50:00,75.8,73.6,29.82,West,280,0.0,0.0,93,0.00,,,0.14,Wunderground v.1.15,2013-09-03 23:50:00,
2013-09-03 19:55:00,75.6,73.8,29.82,West,280,0.0,0.0,94,0.00,,,0.14,Wunderground v.1.15,2013-09-03 23:55:00,
2013-09-03 20:00:00,75.4,73.2,29.83,West,280,0.0,0.0,93,0.00,,,0.14,Wunderground v.1.15,2013-09-04 00:00:00,
2013-09-03 20:05:00,75.3,73.5,29.83,West,280,0.0,0.0,94,0.00,,,0.14,Wunderground v.1.15,2013-09-04 00:05:00,
2013-09-03 20:15:00,74.8,73.3,29.83,West,280,0.0,0.0,95,0.00,,,0.14,Wunderground v.1.15,2013-09-04 00:15:00,
2013-09-03 20:20:00,74.7,73.2,29.83,West,280,0.0,0.0,95,0.00,,,0.14,Wunderground v.1.15,2013-09-04 00:20:00,
2013-09-03 20:25:00,74.6,73.4,29.83,West,280,0.0,0.0,96,0.00,,,0.14,Wunderground v.1.15,2013-09-04 00:25:00,
2013-09-03 20:35:00,74.3,73.4,29.84,West,280,0.0,0.0,97,0.00,,,0.14,Wunderground v.1.15,2013-09-04 00:35:00,
2013-09-03 20:40:00,74.1,72.9,29.84,West,280,0.0,0.0,96,0.00,,,0.14,Wunderground v.1.15,2013-09-04 00:40:00,
2013-09-03 20:50:00,73.9,73.0,29.84,West,280,0.0,0.0,97,0.00,,,0.14,Wunderground v.1.15,2013-09-04 00:50:00,
2013-09-03 20:55:00,73.8,72.9,29.85,West,280,0.0,0.0,97,0.00,,,0.14,Wunderground v.1.15,2013-09-04 00:55:00,
2013-09-03 21:05:00,73.6,72.7,29.85,West,280,0.0,0.0,97,0.00,,,0.14,Wunderground v.1.15,2013-09-04 01:05:00,
2013-09-03 21:10:00,73.4,72.5,29.86,West,280,0.0,0.0,97,0.00,,,0.14,Wunderground v.1.15,2013-09-04 01:10:00,
2013-09-03 21:15:00,73.3,72.4,29.86,West,280,0.0,0.0,97,0.00,,,0.14,Wunderground v.1.15,2013-09-04 01:15:00,
2013-09-03 21:25:00,73.0,72.4,29.87,West,280,0.0,0.0,98,0.00,,,0.14,Wunderground v.1.15,2013-09-04 01:25:00,
2013-09-03 21:30:00,72.9,72.3,29.87,West,280,0.0,0.0,98,0.00,,,0.14,Wunderground v.1.15,2013-09-04 01:30:00,
2013-09-03 21:35:00,72.8,72.2,29.87,West,280,0.0,0.0,98,0.00,,,0.14,Wunderground v.1.15,2013-09-04 01:35:00,
2013-09-03 21:40:00,72.7,72.1,29.87,West,280,0.0,0.0,98,0.00,,,0.14,Wunderground v.1.15,2013-09-04 01:40:00,
2013-09-03 21:50:00,72.6,72.0,29.87,West,280,0.0,0.0,98,0.00,,,0.14,Wunderground v.1.15,2013-09-04 01:50:00,
2013-09-03 21:55:00,72.5,71.9,29.87,West,280,0.0,0.0,98,0.00,,,0.14,Wunderground v.1.15,2013-09-04 01:55:00,
2013-09-03 22:05:00,72.4,72.1,29.88,West,280,0.0,0.0,99,0.00,,,0.14,Wunderground v.1.15,2013-09-04 02:05:00,
2013-09-03 22:10:00,72.3,71.7,29.88,West,280,0.0,0.0,98,0.00,,,0.14,Wunderground v.1.15,2013-09-04 02:10:00,
2013-09-03 22:15:00,72.2,71.6,29.88,West,280,0.0,0.0,98,0.00,,,0.14,Wunderground v.1.15,2013-09-04 02:15:00,
2013-09-03 22:20:00,72.1,71.5,29.88,West,280,0.0,0.0,98,0.00,,,0.14,Wunderground v.1.15,2013-09-04 02:20:00,
2013-09-03 22:30:00,71.9,71.6,29.89,West,280,0.0,0.0,99,0.00,,,0.14,Wunderground v.1.15,2013-09-04 02:30:00,
2013-09-03 22:35:00,72.0,71.7,29.88,West,280,0.0,0.0,99,0.00,,,0.14,Wunderground v.1.15,2013-09-04 02:35:00,
2013-09-03 22:40:00,72.0,71.7,29.88,West,280,0.0,0.0,99,0.00,,,0.14,Wunderground v.1.15,2013-09-04 02:40:00,
2013-09-03 22:50:00,72.1,71.8,29.88,West,280,0.0,0.0,99,0.00,,,0.14,Wunderground v.1.15,2013-09-04 02:50:00,
2013-09-03 22:55:00,72.1,71.8,29.88,West,280,0.0,0.0,99,0.00,,,0.14,Wunderground v.1.15,2013-09-04 02:55:00,
2013-09-03 23:00:00,72.2,71.9,29.88,West,280,0.0,0.0,99,0.00,,,0.14,Wunderground v.1.15,2013-09-04 03:00:00,
2013-09-03 23:10:00,72.1,71.8,29.89,West,280,0.0,0.0,99,0.00,,,0.14,Wunderground v.1.15,2013-09-04 03:10:00,
2013-09-03 23:15:00,72.1,71.8,29.89,West,280,0.0,0.0,99,0.00,,,0.14,Wunderground v.1.15,2013-09-04 03:15:00,
2013-09-03 23:25:00,72.1,71.8,29.89,West,280,0.0,0.0,99,0.00,,,0.14,Wunderground v.1.15,2013-09-04 03:25:00,
2013-09-03 23:30:00,72.1,71.8,29.89,West,280,0.0,0.0,99,0.00,,,0.14,Wunderground v.1.15,2013-09-04 03:30:00,
2013-09-03 23:35:00,72.1,71.8,29.89,West,280,0.0,0.0,99,0.00,,,0.14,Wunderground v.1.15,2013-09-04 03:35:00,
2013-09-03 23:45:00,71.9,71.6,29.89,West,280,0.0,0.0,99,0.00,,,0.14,Wunderground v.1.15,2013-09-04 03:45:00,
2013-09-03 23:50:00,71.8,71.5,29.89,West,280,0.0,0.0,99,0.00,,,0.14,Wunderground v.1.15,2013-09-04 03:50:00,
2013-09-03 23:55:00,71.7,71.4,29.89,West,280,0.0,0.0,99,0.00,,,0.14,Wunderground v.1.15,2013-09-04 03:55:00,